Terminal Aerodrome Forecast
Issued by NWS

Home | Current Version | Previous Version | Text Only | Print | Product List | Glossary On
Versions: 1 2 3 4 5 6 7 8 9 10 11 12 13 14 15 16 17 18 19 20 21 22 23 24 25 26 27 28 29 30 31 32 33
000
FTAK31 PANC 101236 AAA
TAFAVD
TAF AMD
PAVD 101236Z 1013/1112 VRB06KT P6SM FEW050 BKN200
     FM101400 10003KT P6SM VCSH SCT035 OVC060
     FM101800 09004KT 6SM -SN SCT020 OVC040
     FM110000 VRB04KT P6SM VCSH SCT030 BKN060
     FM110600 05004KT P6SM -SHSN SCT020 OVC040
      AMD LTD TO CLD VIS AND WIND=

USA.gov is the U.S. government's official web portal to all federal, state and local government web resources and services.